This is the latest recevied weather packets stored in our database for station/object K8MUD. If no packets are shown the sender has not sent any weather packets the latest 10 day(s).
| Time | Temp. | Humidity | Pressure | Rain* | Wind** | Luminosity | Snow |
|---|---|---|---|---|---|---|---|
| 1778119978 | 10° C | 73% | 1012.5 hPa | 0 mm | - | - | - |
| 1778119678 | 10° C | 76% | 1012.4 hPa | 0 mm | - | - | - |
| 1778119378 | 10.56° C | 75% | 1012.4 hPa | 0 mm | - | - | - |
| 1778119078 | 10.56° C | 73% | 1012.3 hPa | 0 mm | - | - | - |
| 1778118778 | 10° C | 69% | 1012.5 hPa | 0 mm | - | - | - |
| 1778118478 | 10° C | 69% | 1012.4 hPa | 0 mm | - | - | - |
| 1778118178 | 10° C | 68% | 1012.3 hPa | 0 mm | - | - | - |
| 1778117877 | 10° C | 68% | 1012.3 hPa | 0 mm | - | - | - |
| 1778117577 | 10° C | 67% | 1012.4 hPa | 0 mm | - | - | - |
| 1778117277 | 10° C | 68% | 1012.3 hPa | 0 mm | - | - | - |
| 1778116977 | 10° C | 68% | 1012.2 hPa | 0 mm | - | - | - |
| 1778116677 | 10° C | 69% | 1012.2 hPa | 0 mm | - | - | - |
| 1778116377 | 10° C | 69% | 1012.2 hPa | 0 mm | - | - | - |
| 1778116077 | 10° C | 68% | 1012.2 hPa | 0 mm | - | - | - |
| 1778115777 | 10° C | 68% | 1012.2 hPa | 0 mm | - | - | - |
| 1778115477 | 10° C | 67% | 1012.3 hPa | 0 mm | - | - | - |
| 1778115177 | 10° C | 69% | 1012.3 hPa | 0 mm | - | - | - |
| 1778114877 | 10° C | 69% | 1012.1 hPa | 0 mm | - | - | - |
| 1778114577 | 10° C | 70% | 1012.2 hPa | 0 mm | - | - | - |
| 1778114276 | 10° C | 68% | 1012.2 hPa | 0 mm | - | - | - |
| 1778113946 | 10° C | 67% | 1012.2 hPa | 0 mm | - | - | - |
| 1778113646 | 10° C | 67% | 1012.2 hPa | 0 mm | - | - | - |
| 1778113346 | 10° C | 68% | 1012.2 hPa | 0 mm | - | - | - |
| 1778113046 | 10° C | 67% | 1012.2 hPa | 0 mm | - | - | - |
| 1778112746 | 10° C | 67% | 1012.2 hPa | 0 mm | - | - | - |
* Rain latest hour (hover to see other rain measurements)
** Current wind speed in m/s (hover to see current wind gust speed)